Regional Weather Roundup
Issued by NWS

Home | Current Version | Previous Version | Graphics & Text | Print | Product List | Glossary On
Versions: 1 2 3 4 5 6 7 8 9 10 11 12 13 14 15 16 17 18 19 20 21 22 23 24 25 26 27 28 29 30 31 32 33 34 35 36 37 38 39 40 41 42 43 44 45 46 47 48 49 50
955
ASUS43 KIND 281509
RWRIN

WEATHER ROUNDUP FOR INDIANA
NATIONAL WEATHER SERVICE INDIANAPOLIS IN
1100 AM EDT WED SEP 28 2016

NOTE: "FAIR" INDICATES FEW OR NO CLOUDS BELOW 12,000 FEET WITH NO
SIGNIFICANT WEATHER AND/OR OBSTRUCTIONS TO VISIBILITY.

* - STATION DOES NOT REPORT WEATHER SUCH AS PRECIPITATION OR FOG.

+ - STATION NOT QUALITY CONTROLLED BY THE NATIONAL WEATHER SERVICE.
    USE DATA WITH CAUTION...ESPECIALLY DEWPOINT AND RELATIVE
    HUMIDITY OBSERVATIONS.

INZ001>003-010>013-019-020-281600-
NORTHWEST INDIANA

CITY           SKY/WX    TMP DP  RH WIND       PRES   REMARKS
GARY /AIRPORT/ CLOUDY    55  54  94 NW14      29.87R
KNOX *+        CLOUDY    54  34  47 N5        29.83R
LA PORTE +     CLOUDY    57  51  81 N10       29.85R
MICHIGAN CITY+ CLOUDY    55  48  76 MISG      29.85R
MONTICELLO +   CLOUDY    56  49  77 CALM      29.81R
RENSSELAER +   CLOUDY    57  50  77 N8        29.84R
VALPARAISO     CLOUDY    57  50  77 CALM      29.84R

$$

LMZ046-743>745-281600-
SOUTHERN LAKE MICHIGAN

STATION/POSITION TIME  TEMP    WIND        PRES    WAVE
                       AIR SEA DIR/SP/G            HT
                 (UTC) (F)     (DEG/KT/KT) (MB)    (FT)
BURNS HARBOR     1440   59      30/ 13/ 17 1010.8R
MICHIGAN CITY    1440   57      20/ 19/ 20   N/A
5NW MICH CITY    1500   59 66   30/ 16/ 21   N/A     3

$$

INZ004-005-014>016-021>024-281600-
NORTH CENTRAL INDIANA

CITY           SKY/WX    TMP DP  RH WIND       PRES   REMARKS
ELKHART        CLOUDY   N/A N/A N/A E8        29.84R
GOSHEN         CLOUDY    53  46  77 E6        29.84R
LOGANSPORT +   PTSUNNY   55  52  88 E3        29.83R
PERU/GRISSOM   LGT RAIN  53  53  97 N3        29.81R
ROCHESTER +    CLOUDY    59  55  88 E5        29.83S
SOUTH BEND     CLOUDY    54  49  83 N7        29.84R
WARSAW +       CLOUDY    55  45  67 E5        29.84R

$$

INZ006>009-017-018-025>027-281600-
NORTHEAST INDIANA

CITY           SKY/WX    TMP DP  RH WIND       PRES   REMARKS
ANGOLA *+        N/A     63  54  72 S10       29.83S
AUBURN +       CLOUDY    61  46  59 S3        29.85R
FORT WAYNE     LGT RAIN  57  52  83 S5        29.85R
HUNTINGTON +   RAIN      56  54  94 S3        29.84R
KENDALLVILLE + LGT RAIN  56  50  80 SW6       29.84S

$$

INZ028-029-035-036-043>045-051>053-281600-
WEST CENTRAL INDIANA

CITY           SKY/WX    TMP DP  RH WIND       PRES   REMARKS
CRAWFORDSVL +  CLOUDY    56  56 100 N3        29.81R
GREENCASTLE +  CLOUDY    59  59 100 CALM      29.83R
LAFAYETTE      MOSUNNY   60  51  72 N5        29.82R
TERRE HAUTE    PTSUNNY   62  55  77 N5        29.81R

$$

INZ030>032-037>040-046>048-054>057-064-065-281600-
CENTRAL INDIANA

CITY           SKY/WX    TMP DP  RH WIND       PRES   REMARKS
ANDERSON       LGT RAIN  57  55  94 SE6       29.84F
COLUMBUS       SUNNY     59  57  94 CALM      29.81S
FISHERS *+     CLOUDY    54  54 100 E5        29.82R
FRANKFORT +    CLOUDY    59  54  84 NE6       29.83R
GREENWOOD *+   CLOUDY    59  59 100 E6        29.81S
INDIANAPOLIS   LGT RAIN  59  55  87 E10       29.80R
-EAGLE CREEK   LGT RAIN  58  53  84 VRB6      29.80R
MARION +       CLOUDY    56  53  92 E6        29.83F
MT COMFORT *+  CLOUDY    55  55 100 NE7       29.82S
SHELBYVILLE    CLOUDY    61  55  81 NE5       29.82R THUNDER
ZIONSVILLE +   HVY RAIN  55  53  95 CALM      29.81R

$$

INZ033-034-041-042-049-050-058-059-281600-
EAST CENTRAL INDIANA

CITY           SKY/WX    TMP DP  RH WIND       PRES   REMARKS
MUNCIE         LGT RAIN  58  55  90 NE3       29.84S

$$

INZ060-061-067>069-081>083-085>088-281600-
SOUTHWEST INDIANA

CITY           SKY/WX    TMP DP  RH WIND       PRES   REMARKS
EVANSVILLE     LGT RAIN  63  53  70 W8        29.82R
HUNTINGBURG *+   N/A     59  52  77 S5        29.82R
WASHINGTON +   CLOUDY    63  55  76 MISG      29.80R

$$

INZ062-063-066-070>080-084-089>092-281600-
SOUTH CENTRAL AND SOUTHEAST INDIANA

CITY           SKY/WX    TMP DP  RH WIND       PRES   REMARKS
BLOOMINGTON    LGT RAIN  59  55  87 VRB3      29.81R FOG
MADISON *+     PTSUNNY   64  48  55 SW6       29.84R
NORTH VERNON + PTSUNNY   63  57  82 SE5       29.82R
SEYMOUR +      CLOUDY    66  52  59 CALM      29.80S

$$





USA.gov is the U.S. government's official web portal to all federal, state and local government web resources and services.